Weather History for Preston, MN

Change the Weather History Date:

Thursday, February 14, 2013

  Actual Average (KRST) Record (KRST)
Temperature  
Mean Temperature 27 °F 20 °F  
Max Temperature 36 °F 28 °F 58 °F (1954)
Min Temperature 17 °F 12 °F -23 °F (1951)
Degree Days  
Heating Degree Days 38 45  
Month to date heating degree days 657  
Since 1 July heating degree days 5265  
Cooling Degree Days 0 0  
Month to date cooling degree days 0  
Year to date cooling degree days 0  
Moisture  
Dew Point 23 °F    
Average Humidity 80    
Maximum Humidity 98    
Minimum Humidity 54    
Precipitation  
Precipitation 0.00 in 0.02 in 0.80 in (1911)
Month to date precipitation 0.37  
Year to date precipitation 1.23  
Snow  
Snow 0.00 in 0.30 in 5.50 in (1950)
Month to date snowfall 4.4  
Since 1 July snowfall 35.8  
Snow Depth -    
Sea Level Pressure  
Sea Level Pressure 29.82 in    
Wind  
Wind Speed 13 mph (NW)    
Max Wind Speed 20 mph    
Max Gust Speed 26 mph    
Visibility 9 miles    
Events Snow    
T = Trace of Precipitation, MM = Missing Value Source: NWS Daily Summary

Daily Weather History Graph

Daily Weather History Graph

Search for Another Location

Airport:

Trip Planner

Search our weather history database for the weather conditions in past years. The results will help you decide how hot, cold, wet, or windy it might be!

Date:

Astronomy

Feb. 14, 2013 Rise Set
Actual Time 7:08 AM CST 5:37 PM CST
Civil Twilight 6:38 AM CST 6:07 PM CST
Nautical Twilight 6:05 AM CST 6:41 PM CST
Astronomical Twilight 5:32 AM CST 7:14 PM CST
Moon 8:59 AM CST (2/14) 10:53 PM CST (2/14)
Length of Visible Light 11h 28m
Length of Day
10h 29m
Waxing Crescent, 22% of the Moon is Illuminated
Feb 14
Waxing Crescent
Feb 17
First Quarter
Feb 25
Full
Mar 4
Last Quarter
Mar 11
New

Hourly Weather History & Observations

Time (CST) Temp. Windchill Dew Point Humidity Pressure Visibility Wind Dir Wind Speed Gust Speed Precip Events Conditions
12:09 AM 36.0 °F 29.6 °F 32.4 °F 87% 29.57 in 10.0 mi WSW 8.1 mph - N/A   Overcast
12:29 AM 35.8 °F 28.3 °F 32.0 °F 86% 29.56 in 10.0 mi West 10.4 mph - N/A   Overcast
12:49 AM 35.6 °F 27.5 °F 32.0 °F 87% 29.56 in 10.0 mi West 11.5 mph - N/A   Overcast
1:10 AM 35.2 °F 27.1 °F 32.0 °F 88% 29.55 in 10.0 mi West 11.5 mph - N/A   Overcast
1:29 AM 34.9 °F 27.1 °F 32.0 °F 89% 29.55 in 10.0 mi West 10.4 mph - N/A   Overcast
1:50 AM 34.7 °F 26.4 °F 32.0 °F 90% 29.55 in 10.0 mi West 11.5 mph - N/A   Overcast
2:09 AM 34.0 °F 25.5 °F 32.0 °F 92% 29.55 in 7.0 mi West 11.5 mph - N/A   Overcast
2:29 AM 33.3 °F 24.6 °F 32.0 °F 95% 29.56 in 5.0 mi West 11.5 mph - N/A   Overcast
2:49 AM 33.3 °F 23.7 °F 32.0 °F 95% 29.56 in 7.0 mi West 13.8 mph - N/A   Overcast
3:10 AM 32.9 °F 22.4 °F 31.8 °F 96% 29.57 in 10.0 mi WNW 16.1 mph - N/A   Overcast
3:29 AM 32.9 °F 22.0 °F 31.1 °F 93% 29.57 in 7.0 mi WNW 17.3 mph 23.0 mph N/A   Overcast
3:50 AM 32.4 °F 22.1 °F 31.5 °F 96% 29.57 in 4.0 mi WNW 15.0 mph - N/A   Overcast
4:09 AM 32.2 °F 21.8 °F 31.6 °F 98% 29.57 in 3.0 mi WNW 15.0 mph - N/A   Overcast
4:30 AM 32.2 °F 21.8 °F 31.6 °F 98% 29.58 in 4.0 mi NW 15.0 mph 19.6 mph N/A Snow Light Snow
4:50 AM 32.0 °F 22.5 °F 31.3 °F 97% 29.59 in 2.5 mi NW 12.7 mph 18.4 mph N/A Snow Light Snow
5:09 AM 32.0 °F 21.2 °F 30.9 °F 96% 29.61 in 2.5 mi NNW 16.1 mph 23.0 mph N/A Snow Light Snow
5:29 AM 31.6 °F 20.4 °F 30.2 °F 94% 29.63 in 2.0 mi NNW 17.3 mph 23.0 mph N/A Snow Light Snow
5:49 AM 31.1 °F 18.9 °F 29.3 °F 93% 29.65 in 4.0 mi NNW 19.6 mph 25.3 mph N/A   Overcast
6:10 AM 30.7 °F 20.0 °F 28.9 °F 93% 29.66 in 4.0 mi NNW 15.0 mph 25.3 mph N/A   Overcast
6:30 AM 30.2 °F 18.5 °F 28.4 °F 93% 29.69 in 5.0 mi NNW 17.3 mph 24.2 mph N/A   Overcast
6:49 AM 30.2 °F 19.8 °F 28.0 °F 92% 29.70 in 5.0 mi NNW 13.8 mph 20.7 mph N/A   Overcast
7:09 AM 29.8 °F 20.9 °F 27.3 °F 90% 29.72 in 7.0 mi NNW 10.4 mph 13.8 mph N/A   Overcast
7:30 AM 29.7 °F 17.8 °F 27.0 °F 90% 29.73 in 10.0 mi NNW 17.3 mph - N/A   Overcast
7:50 AM 29.3 °F 19.1 °F 26.1 °F 88% 29.75 in 10.0 mi NNW 12.7 mph 19.6 mph N/A   Overcast
8:10 AM 29.3 °F 20.2 °F 25.7 °F 86% 29.76 in 10.0 mi NNW 10.4 mph - N/A   Mostly Cloudy
8:30 AM 29.3 °F 18.2 °F 25.7 °F 86% 29.77 in 10.0 mi NNW 15.0 mph 21.9 mph N/A   Mostly Cloudy
8:50 AM 29.3 °F 19.1 °F 25.5 °F 86% 29.78 in 10.0 mi NNW 12.7 mph 16.1 mph N/A   Mostly Cloudy
9:10 AM 29.1 °F 17.9 °F 25.0 °F 85% 29.78 in 10.0 mi NNW 15.0 mph 20.7 mph N/A   Mostly Cloudy
9:29 AM 29.3 °F 19.1 °F 25.2 °F 85% 29.79 in 10.0 mi NW 12.7 mph - N/A   Scattered Clouds
9:50 AM 29.8 °F 20.3 °F 25.2 °F 83% 29.79 in 10.0 mi NW 11.5 mph - N/A   Clear
10:09 AM 30.0 °F 20.0 °F 25.3 °F 83% 29.80 in 10.0 mi NW 12.7 mph - N/A   Scattered Clouds
10:30 AM 30.2 °F 20.8 °F 25.3 °F 82% 29.80 in 10.0 mi NNW 11.5 mph - N/A   Scattered Clouds
10:49 AM 30.7 °F 20.9 °F 25.5 °F 81% 29.82 in 10.0 mi NW 12.7 mph - N/A   Scattered Clouds
11:10 AM 30.2 °F 20.2 °F 24.6 °F 80% 29.84 in 10.0 mi WNW 12.7 mph - N/A   Mostly Cloudy
11:30 AM 30.2 °F 20.8 °F 25.0 °F 81% 29.84 in 10.0 mi WNW 11.5 mph - N/A   Overcast
11:49 AM 31.1 °F 22.4 °F 25.2 °F 79% 29.84 in 10.0 mi NW 10.4 mph - N/A   Overcast
12:10 PM 31.1 °F 23.1 °F 24.8 °F 77% 29.84 in 10.0 mi NW 9.2 mph - N/A   Overcast
12:30 PM 32.0 °F 22.5 °F 25.0 °F 75% 29.84 in 10.0 mi WNW 12.7 mph - N/A   Overcast
12:49 PM 31.8 °F 21.4 °F 25.2 °F 76% 29.84 in 10.0 mi WNW 15.0 mph - N/A   Overcast
1:10 PM 31.8 °F 22.8 °F 25.7 °F 78% 29.84 in 10.0 mi NW 11.5 mph - N/A   Overcast
1:30 PM 31.6 °F 22.6 °F 25.9 °F 79% 29.85 in 10.0 mi WNW 11.5 mph - N/A   Mostly Cloudy
1:49 PM 31.8 °F 21.8 °F 25.7 °F 78% 29.85 in 10.0 mi NW 13.8 mph - N/A   Mostly Cloudy
2:09 PM 31.8 °F 22.3 °F 25.2 °F 76% 29.85 in 10.0 mi NW 12.7 mph - N/A   Mostly Cloudy
2:30 PM 32.0 °F 20.8 °F 24.4 °F 74% 29.86 in 10.0 mi NW 17.3 mph - N/A   Overcast
2:50 PM 32.0 °F 20.1 °F 24.4 °F 74% 29.87 in 10.0 mi WNW 19.6 mph 25.3 mph N/A   Overcast
3:09 PM 31.1 °F 19.3 °F 20.8 °F 66% 29.87 in 10.0 mi NW 18.4 mph - N/A   Overcast
3:30 PM 30.4 °F 18.7 °F 22.6 °F 73% 29.88 in 10.0 mi WNW 17.3 mph 21.9 mph N/A   Overcast
3:49 PM 29.7 °F 19.6 °F 25.2 °F 83% 29.89 in 4.0 mi NW 12.7 mph - N/A   Overcast
4:10 PM 30.0 °F 19.1 °F 25.0 °F 82% 29.90 in 10.0 mi NW 15.0 mph 19.6 mph N/A   Overcast
4:30 PM 30.0 °F 20.0 °F 25.2 °F 82% 29.92 in 10.0 mi NW 12.7 mph 18.4 mph N/A   Overcast
4:49 PM 29.7 °F 18.6 °F 25.3 °F 84% 29.92 in 10.0 mi NW 15.0 mph 19.6 mph N/A   Overcast
5:10 PM 29.3 °F 18.2 °F 25.3 °F 85% 29.93 in 10.0 mi NW 15.0 mph 18.4 mph N/A   Overcast
5:30 PM 28.6 °F 16.4 °F 23.9 °F 83% 29.94 in 10.0 mi NW 17.3 mph 21.9 mph N/A   Mostly Cloudy
5:49 PM 28.2 °F 16.3 °F 23.5 °F 83% 29.94 in 10.0 mi NW 16.1 mph 23.0 mph N/A   Mostly Cloudy
6:09 PM 27.9 °F 15.9 °F 23.2 °F 83% 29.96 in 10.0 mi NW 16.1 mph 21.9 mph N/A   Mostly Cloudy
6:30 PM 27.5 °F 15.4 °F 22.6 °F 82% 29.97 in 10.0 mi NW 16.1 mph 25.3 mph N/A   Overcast
6:49 PM 27.0 °F 14.7 °F 20.5 °F 77% 29.98 in 10.0 mi NNW 16.1 mph 25.3 mph N/A   Mostly Cloudy
7:09 PM 25.7 °F 14.0 °F 18.1 °F 73% 29.99 in 10.0 mi NNW 13.8 mph 23.0 mph N/A   Scattered Clouds
7:29 PM 25.7 °F 11.9 °F 19.2 °F 76% 30.00 in 10.0 mi NW 19.6 mph 25.3 mph N/A   Mostly Cloudy
7:49 PM 23.9 °F 9.5 °F 12.7 °F 62% 30.01 in 10.0 mi NNW 19.6 mph 26.5 mph N/A   Mostly Cloudy
8:10 PM 22.6 °F 9.6 °F 10.6 °F 60% 30.03 in 10.0 mi NNW 15.0 mph 26.5 mph N/A   Clear
8:30 PM 21.9 °F 9.8 °F 7.7 °F 54% 30.03 in 10.0 mi NNW 12.7 mph 24.2 mph N/A   Clear
8:49 PM 21.2 °F 8.3 °F 8.6 °F 58% 30.05 in 10.0 mi NNW 13.8 mph 18.4 mph N/A   Clear
9:10 PM 20.8 °F 7.3 °F 7.5 °F 56% 30.05 in 10.0 mi NNW 15.0 mph 19.6 mph N/A   Clear
9:29 PM 20.3 °F 7.2 °F 7.5 °F 58% 30.06 in 10.0 mi NNW 13.8 mph - N/A   Clear
9:49 PM 19.9 °F 7.3 °F 7.3 °F 58% 30.07 in 10.0 mi NNW 12.7 mph 19.6 mph N/A   Clear
10:10 PM 19.8 °F 5.9 °F 6.4 °F 56% 30.07 in 10.0 mi North 15.0 mph 24.2 mph N/A   Clear
10:29 PM 19.4 °F 4.5 °F 5.9 °F 56% 30.08 in 10.0 mi North 17.3 mph - N/A   Clear
10:50 PM 18.9 °F 4.8 °F 6.1 °F 58% 30.08 in 10.0 mi North 15.0 mph - N/A   Clear
11:09 PM 18.5 °F 5.5 °F 5.7 °F 58% 30.10 in 10.0 mi NNW 12.7 mph 20.7 mph N/A   Clear
11:30 PM 18.0 °F 6.1 °F 5.9 °F 59% 30.10 in 10.0 mi NNW 10.4 mph - N/A   Clear
11:50 PM 17.6 °F 5.0 °F 6.1 °F 61% 30.11 in 10.0 mi NNW 11.5 mph - N/A   Clear